SCP
0 0 0 0 0 0 0 0 0 0 0 0 0 0 0 0 1 1 1 1 1 1 1 1 1 1 1 1 1 1 1 1 1 1 1 1 1 1 1 1 1 1 1 1
0 0 0 0 0 0 0 0 0 0 0 0 0 0 0 1 1 1 1 1 1 1 1 1 1 1 1 1 1 1 1 1 1 1 1 1 1 1 1 1 1 1 1 1
0 0 0 0 0 0 0 0 0 0 0 0 0 0 1 1 1 1 1 1 1 1 1 1 1 1 1 1 1 1 1 1 1 1 1 1 1 1 1 1 1 1 1 1
0 0 0 0 0 0 0 0 0 0 0 0 0 1 1 1 1 1 1 1 1 1 1 1 1 1 1 1 1 1 1 1 1 1 1 1 1 1 1 1 1 1 1 1
0 0 0 0 0 0 0 0 0 0 0 0 1 1 1 1 1 1 1 1 1 1 1 1 1 1 1 1 1 1 1 1 1 1 1 1 1 1 1 1 1 1 1 1
0 0 0 0 0 0 0 0 0 0 0 0 0 0 1 1 1 1 1 1 1 1 1 1 1 0 0 0 0 1 1 1 1 1 1 1 1 1 1 1 1 1 1 1
0 0 0 0 0 0 0 0 0 0 1 1 1 1 1 1 1 1 1 1 1 1 1 1 1 0 0 0 0 0 1 1 1 1 1 1 1 1 1 1 1 1 1 1
0 0 0 0 0 0 1 1 1 1 1 1 1 1 1 1 1 1 1 1 1 1 1 1 1 1 1 0 0 0 1 1 1 1 1 1 1 1 1 1 1 1 1 1
0 0 0 0 1 1 1 1 1 1 1 1 1 0 1 1 1 1 1 1 1 1 1 1 1 1 1 1 1 1 1 1 1 1 1 1 1 1 1 1 1 1 1 1
0 0 0 0 1 1 1 1 1 1 0 0 0 0 0 1 1 1 1 0 0 0 1 1 1 1 1 1 1 1 1 1 1 1 1 1 1 1 1 1 1 1 1 1
0 0 0 0 0 0 0 0 0 0 0 0 0 0 0 1 1 0 1 1 0 0 1 1 1 1 1 1 1 1 1 1 1 1 1 1 1 0 0 0 0 0 1 1
0 0 0 0 0 0 0 0 0 0 0 0 0 0 0 0 0 0 0 1 1 0 0 1 1 1 1 1 1 1 1 1 1 1 1 1 0 0 0 0 0 0 0 0
0 0 0 0 0 0 0 0 0 0 0 0 0 0 0 0 0 0 0 0 0 0 0 0 0 1 1 1 1 1 1 1 1 1 1 0 0 0 0 0 0 0 0 0
0 0 0 0 0 0 0 0 0 0 0 0 0 0 0 0 0 0 0 0 0 0 0 0 0 0 0 0 0 0 0 0 0 0 0 0 0 0 0 0 0 0 0 0
0 0 0 0 0 0 0 0 0 0 0 0 0 0 0 0 0 0 0 0 0 0 0 0 0 0 0 0 0 0 0 0 0 0 0 0 0 0 0 0 0 0 0 0
0 0 0 0 0 0 0 0 0 0 0 0 0 0 0 0 0 0 0 0 0 0 0 0 0 0 0 0 0 0 0 0 0 0 0 0 0 0 0 0 0 0 0 0
0 0 0 0 0 0 0 0 0 0 0 0 0 0 0 0 0 0 0 0 0 0 0 0 0 0 0 0 0 0 0 0 0 0 0 0 0 0 0 0 0 0 0 0
0 0 0 0 0 0 0 0 0 0 0 0 0 0 0 0 0 0 0 0 0 0 0 0 0 0 0 0 0 0 0 0 0 0 0 0 0 0 0 0 0 0 0 0
0 0 0 0 0 0 0 0 0 0 0 0 0 0 0 0 0 0 0 0 0 0 0 0 0 0 0 0 0 0 0 0 0 0 0 0 0 0 0 0 0 0 0 0
0 0 0 0 0 0 0 0 0 0 0 0 0 0 0 0 0 0 0 0 0 0 0 0 0 0 0 0 0 0 0 0 0 0 0 0 0 0 0 0 0 0 0 0
0 0 0 0 0 0 0 0 0 0 0 0 0 0 0 0 0 0 0 0 0 0 0 0 0 0 0 0 0 0 0 0 0 0 0 0 0 0 0 0 0 0 0 0
0 0 0 0 0 0 0 0 0 0 0 0 0 0 0 0 0 0 0 0 0 0 0 0 0 0 0 0 0 0 0 0 0 0 0 0 0 0 0 0 0 0 0 0
0 0 0 0 0 0 0 0 0 0 0 0 0 0 0 0 0 0 0 0 0 0 0 0 0 0 0 0 0 0 0 0 0 0 0 0 0 0 0 0 0 0 0 0
0 0 0 0 0 0 0 0 0 0 0 0 0 0 0 0 0 0 0 0 0 0 0 0 0 0 0 0 0 0 0 0 0 0 0 0 0 0 0 0 0 0 0 0
0 0 0 0 0 0 0 0 0 0 0 0 0 0 0 0 0 0 0 0 0 0 0 0 0 0 0 0 0 0 0 0 0 0 0 0 0 0 0 0 0 0 0 0
0 0 0 0 0 0 0 0 0 0 0 0 0 0 0 0 0 0 0 0 0 0 0 0 0 0 0 0 0 0 0 0 0 0 0 0 0 0 0 0 0 0 0 0
0 0 0 0 0 0 0 0 0 0 0 0 0 0 0 0 0 0 0 0 0 0 0 0 0 0 0 0 0 0 0 0 0 0 0 0 0 0 0 0 0 0 0 0
Wind_Speed
11 8 12 15 17 18 18 17 14 11 10 7 8 7 7 8 8 9 10 10 10 9 9 9 8 8 9 9 9 9 9 10 10 10 10 10 10 10 10 11 11 11 11 11
12 10 12 14 16 18 18 17 15 12 9 4 5 6 7 8 9 9 9 10 9 9 9 8 8 8 8 8 8 9 9 9 9 9 10 10 10 10 10 11 10 10 11 11
12 11 12 15 16 16 16 15 14 13 7 6 7 6 7 7 8 8 8 8 8 8 8 7 7 7 7 8 8 8 9 9 9 9 9 10 10 10 11 10 10 10 10 10
9 10 14 7 6 10 11 10 9 7 6 6 5 5 4 5 6 6 7 8 8 7 7 6 6 6 6 7 8 8 8 9 9 9 9 9 10 10 10 9 9 10 10 11
9 12 9 6 5 8 10 8 7 7 7 7 8 7 5 4 4 5 5 6 6 6 6 6 6 6 6 7 8 8 8 9 9 9 9 10 10 10 9 9 10 10 10 11
9 12 10 6 5 3 7 8 5 6 7 8 10 7 5 5 5 6 5 5 5 5 5 5 4 5 6 7 7 8 8 8 8 9 9 9 9 9 9 9 9 9 9 10
11 9 3 6 4 6 9 4 4 3 5 6 3 3 7 7 6 6 6 6 5 5 4 3 4 5 6 6 7 6 7 7 8 8 9 9 9 8 8 8 9 9 8 8
9 9 4 5 3 2 4 5 4 4 5 6 7 8 8 7 6 6 6 6 5 5 4 2 3 4 5 5 5 5 6 6 7 8 8 7 7 7 7 7 8 8 7 6
1 2 6 4 4 4 3 4 5 5 7 8 8 7 7 7 6 5 5 5 4 4 4 3 2 2 3 3 3 4 5 5 5 6 6 5 6 6 6 6 6 6 6 6
1 2 4 4 5 4 5 5 6 6 7 8 8 8 7 6 6 5 5 4 4 4 4 3 2 1 1 1 2 4 5 5 5 5 5 4 3 3 4 4 5 5 5 4
2 3 4 5 6 6 6 7 8 8 8 8 8 8 7 6 6 5 5 4 4 4 4 4 3 3 2 1 2 3 4 4 4 4 5 4 4 3 2 2 1 1 2 2
1 3 2 3 4 5 6 7 8 9 9 8 8 8 8 7 6 6 6 5 5 5 5 5 4 4 3 2 2 3 4 4 3 4 5 5 6 6 12 10 12 11 9 6
2 3 4 4 5 6 7 8 8 8 9 9 8 8 8 7 7 7 7 7 7 6 6 6 6 5 5 4 4 4 4 4 3 4 4 5 6 6 7 8 12 13 11 10
3 4 5 6 6 7 9 10 10 10 10 9 8 8 8 9 8 9 8 7 7 7 7 7 7 6 5 4 5 5 5 4 4 4 4 5 5 5 6 6 7 7 9 10
3 4 5 7 8 8 9 10 11 10 10 10 9 9 10 10 9 9 8 8 8 8 8 8 8 7 6 5 6 6 5 4 4 5 5 5 6 5 6 7 7 7 7 7
5 6 7 8 9 9 9 10 10 10 10 10 10 10 10 10 10 10 9 9 9 10 9 9 8 7 6 6 6 6 5 7 6 6 6 6 6 6 6 7 7 7 6 5
6 6 8 8 8 9 9 9 10 10 10 10 10 10 11 11 12 11 11 10 10 10 10 9 8 7 7 7 6 5 6 7 9 7 6 7 6 7 7 7 7 7 7 6
5 6 6 7 8 9 10 10 10 10 10 10 10 10 11 12 12 11 10 10 11 12 11 10 9 8 9 8 7 6 6 7 7 7 7 7 7 7 7 7 8 8 6 7
8 8 8 8 8 9 10 10 10 10 10 9 10 11 11 11 11 10 10 10 11 11 10 10 9 9 9 9 7 7 8 8 8 8 8 8 7 7 7 7 7 7 6 6
10 10 10 10 10 10 10 10 10 10 9 10 11 11 11 10 10 11 12 12 10 8 8 8 9 9 9 9 8 8 8 9 9 8 8 8 8 7 7 7 7 7 7 6
11 11 11 11 11 11 10 10 10 11 10 11 11 11 11 10 10 10 10 10 10 9 9 8 8 8 8 7 8 8 9 9 9 9 8 8 8 8 7 7 7 7 6 6
11 11 11 11 12 11 10 10 11 11 11 11 12 11 11 11 11 11 12 9 9 8 7 9 9 9 8 8 9 9 9 9 9 8 8 8 8 8 8 8 7 7 7 6
10 11 11 11 12 12 11 10 11 11 11 12 11 10 10 9 8 9 9 8 9 10 10 10 10 10 8 9 10 10 10 10 9 9 8 8 8 8 8 8 8 7 7 6
12 12 12 11 12 12 12 11 10 10 11 11 11 10 9 8 9 9 9 9 10 10 10 10 11 10 8 9 9 10 10 9 9 9 9 8 8 8 8 8 7 7 7 7
12 12 12 12 11 9 10 11 11 11 11 9 11 10 9 8 8 8 8 10 9 9 10 10 10 9 9 9 9 10 10 9 9 8 9 8 8 8 8 7 7 7 6 6
11 10 9 9 8 7 7 7 8 7 8 9 9 8 8 8 9 9 8 10 11 9 8 8 8 8 8 9 9 9 9 8 8 8 8 8 8 8 7 7 9 7 6 6
11 9 8 8 8 8 7 7 8 8 8 8 9 8 8 8 8 9 9 8 8 8 8 8 8 8 8 8 9 8 8 7 7 7 7 7 7 7 7 7 6 6 5 6
Wind_Direction
243 225 200 204 206 207 216 227 234 224 227 201 187 181 166 159 158 156 159 162 163 162 164 167 169 174 178 181 182 183 189 198 202 203 203 203 204 205 206 208 209 209 210 211
225 220 215 216 214 211 215 223 233 235 226 197 170 165 165 165 166 166 164 162 162 164 164 167 170 176 179 183 183 186 193 199 201 202 202 203 204 204 204 207 210 210 210 211
219 207 216 219 215 212 213 219 226 228 216 167 168 173 172 169 172 168 162 160 161 162 164 167 170 175 182 184 185 192 199 201 201 203 205 204 202 202 204 204 204 207 209 210
221 202 219 208 201 214 210 215 226 222 185 185 167 146 147 161 163 161 163 161 160 161 159 165 169 176 184 184 190 196 201 203 202 204 205 204 205 204 205 205 205 206 209 211
221 212 209 175 183 198 200 206 207 200 184 164 145 142 133 133 148 152 154 154 153 154 152 156 169 178 185 191 194 199 203 205 203 203 203 205 207 206 206 205 208 209 210 211
224 221 213 160 140 196 210 198 179 184 178 173 183 196 139 121 129 130 134 137 138 140 144 155 170 182 193 196 198 203 205 206 204 203 204 206 208 208 206 206 208 210 211 212
223 220 190 87 135 190 210 160 125 154 164 172 171 76 103 115 112 117 124 125 125 129 138 153 170 182 196 199 205 209 206 202 202 203 206 207 207 207 207 207 206 210 209 208
214 215 170 67 166 189 59 77 108 111 117 109 101 103 108 108 110 114 115 115 119 120 118 130 156 182 193 200 205 205 202 201 200 201 206 202 202 204 204 203 197 198 200 202
275 66 59 47 42 40 67 96 97 98 103 113 115 113 109 106 104 102 104 106 111 112 108 104 121 167 192 201 202 198 193 192 189 189 194 193 189 191 193 195 199 190 191 192
147 102 71 63 55 59 75 87 94 101 110 113 115 113 110 103 96 94 89 92 99 101 96 84 80 97 137 179 186 181 182 180 177 178 176 170 173 181 184 185 195 192 189 185
166 118 90 72 62 64 80 92 99 100 102 105 107 107 105 99 91 87 84 83 87 89 84 76 69 59 50 81 154 166 167 165 166 165 154 131 108 65 97 80 68 152 162 143
114 88 73 71 61 77 91 96 101 103 99 94 96 98 95 92 86 83 81 78 78 76 73 67 63 61 55 70 119 139 140 142 148 143 134 130 120 97 60 61 63 63 59 74
48 72 85 91 80 87 94 95 95 97 98 95 90 91 91 90 85 80 74 72 71 71 69 67 66 62 55 71 93 107 114 120 124 126 126 130 133 128 115 83 68 64 63 70
92 106 111 101 94 90 96 95 93 91 89 88 89 89 88 86 81 74 68 67 69 69 66 64 61 58 51 65 86 96 104 105 114 117 120 118 117 120 119 117 110 92 72 70
92 88 106 106 102 99 102 102 98 93 89 84 82 82 85 83 77 71 66 67 69 67 62 60 58 51 49 64 77 86 94 99 103 104 106 108 109 111 110 107 101 99 96 86
106 105 109 110 109 108 107 103 99 94 91 88 84 81 83 82 79 73 65 63 65 60 55 55 51 44 50 69 79 84 84 78 90 101 103 104 103 102 99 98 95 93 90 89
118 120 121 118 114 111 105 100 98 98 95 91 88 87 88 86 80 72 66 63 65 62 55 52 49 47 53 64 76 85 90 87 82 88 91 94 95 96 96 96 95 92 84 71
107 108 114 119 116 111 104 99 96 95 94 95 94 88 85 83 80 78 75 71 68 62 52 50 52 56 59 62 70 77 84 86 86 85 85 84 88 91 92 93 94 93 92 89
108 107 106 107 110 108 106 102 98 96 97 95 89 84 82 82 82 80 75 70 65 61 52 51 52 60 63 61 69 79 82 86 87 86 87 85 83 83 86 88 89 88 88 86
104 105 104 102 101 102 103 103 101 98 95 94 90 87 83 80 82 81 75 68 58 58 57 52 59 62 63 63 67 80 82 83 83 82 81 80 80 79 79 81 81 80 80 78
106 106 104 101 98 97 99 102 101 99 97 96 94 92 87 81 77 77 77 72 58 53 63 62 60 63 67 72 76 79 81 82 81 81 80 79 78 76 75 77 78 79 78 77
101 100 100 102 101 96 93 96 98 98 97 94 93 93 91 88 83 76 67 65 62 43 56 62 61 53 53 69 76 77 79 81 82 82 83 82 81 80 77 77 78 77 75 72
99 98 98 100 101 98 94 93 94 94 91 89 87 85 81 76 76 79 74 62 63 56 59 58 48 45 52 73 77 78 78 79 80 80 80 81 81 80 80 78 75 73 70 67
100 99 98 99 101 100 97 94 91 89 89 87 83 82 84 85 79 73 77 71 62 67 67 54 45 47 58 71 73 74 74 75 76 77 77 77 77 78 79 79 78 76 74 72
99 100 101 102 99 97 99 100 97 93 91 87 83 78 75 75 81 82 81 79 76 77 80 69 53 51 64 69 71 73 70 65 64 70 73 72 74 75 74 72 70 71 70 67
101 100 98 97 98 103 103 101 97 94 93 91 85 81 83 86 89 90 88 84 80 74 74 76 74 69 68 69 69 69 73 77 75 73 73 74 72 71 70 69 70 65 64 61
103 104 103 100 99 98 98 97 96 93 92 93 90 85 82 83 83 84 84 81 78 73 70 68 67 67 67 66 67 67 67 67 66 67 70 70 69 67 68 67 66 65 63 63